Location: Byszew
(52.1813°N, 19.2693°E)
Time: 20:14:43
(UTC+00:00)

Cosmos 1470 Rocket - Pass Details

Date: 03 March 2021
Orbit: 603 x 634 km, 82.5° (Epoch: 15 April)

Event Time Altitude Azimuth Distance (km) Brightness Sun altitude
Rises 16:59:28 0° 163° (SSE) 2,919 6.9 -5.9°
Reaches altitude 10° 17:01:52 10° 154° (SSE) 2,014 6.0 -6.3°
Maximum altitude 17:05:51 33° 90° (E) 1,071 4.3 -6.9°
Drops below altitude 10° 17:09:50 10° 27° (NNE) 2,016 5.9 -7.5°
Sets 17:12:14 0° 18° (NNE) 2,923 6.8 -7.8°
